Melilla, Spain

11:13 AM CET on February 25, 2017 (GMT +0100)
Melilla

Weather History for GEML - January, 2014

Change the Weather History Date:

Sunday, January 12, 2014

  Actual Average Record
Temperature  
Mean Temperature 58 °F -  
Max Temperature 67 °F 62 °F 73 °F (1998)
Min Temperature 48 °F 50 °F 44 °F (2017)
Degree Days  
Heating Degree Days 8    
Growing Degree Days 8 (Base 50)    
Moisture  
Dew Point 51 °F    
Average Humidity 74    
Maximum Humidity 94    
Minimum Humidity 50    
Precipitation  
Precipitation 0.00 in 0.07 in - ()
Sea Level Pressure  
Sea Level Pressure 30.27 in    
Wind  
Wind Speed 1 mph ()    
Max Wind Speed 6 mph    
Max Gust Speed -    
Visibility 16.5 miles    
Events      
Averages and records for this station are not official NWS values.
T = Trace of Precipitation, MM = Missing Value Source: Averaged Metar Reports

Daily Weather History Graph

Daily Weather History Graph

Search for Another Location

Airport or City:

Trip Planner

Search our weather history database for the weather conditions in past years. The results will help you decide how hot, cold, wet, or windy it might be!

Date:

Astronomy

Jan. 12, 2014 Rise Set
Actual Time 8:20 AM CET 6:19 PM CET
Civil Twilight 7:52 AM CET 6:47 PM CET
Nautical Twilight 7:21 AM CET 7:18 PM CET
Astronomical Twilight 6:50 AM CET 7:49 PM CET
Moon 3:35 PM CET (1/12) 5:07 AM CET (1/12)
Length of Visible Light 10h 54m
Length of Day
9h 59m
Waxing Gibbous, 88% of the Moon is Illuminated
Jan 12
Waxing Gibbous
Jan 16
Full
Jan 24
Last Quarter
Jan 30
New
Feb 6
First Quarter

Hourly Weather History & Observations

Time (CET) Temp. Dew Point Humidity Pressure Visibility Wind Dir Wind Speed Gust Speed Precip Events Conditions
6:00 AM 51.8 °F 50.0 °F 94% 30.21 in - West 1.2 mph - N/A   Clear
6:30 AM 51.8 °F 50.0 °F 94% 30.21 in - WSW 3.5 mph - N/A   Clear
7:00 AM 53 °F 50 °F 84% 30.23 in 16 mi Calm Calm - -  
7:00 AM 50.0 °F 48.2 °F 94% 30.24 in - West 1.2 mph - N/A   Clear
7:30 AM 48.2 °F 46.4 °F 93% 30.24 in - Calm Calm - N/A   Clear
8:00 AM 50.0 °F 48.2 °F 94% 30.24 in - Calm Calm - N/A   Clear
8:30 AM 50.0 °F 48.2 °F 94% 30.27 in - Calm Calm - N/A   Clear
9:00 AM 51.8 °F 50.0 °F 94% 30.27 in - Calm Calm - N/A   Clear
9:30 AM 53.6 °F 50.0 °F 88% 30.27 in - Variable 1.2 mph - N/A   Clear
10:00 AM 55 °F 51 °F 81% 30.30 in 16 mi Calm Calm - -  
10:00 AM 55.4 °F 51.8 °F 88% 30.30 in - Calm Calm - N/A   Clear
10:30 AM 59.0 °F 53.6 °F 82% 30.30 in - Calm Calm - N/A   Clear
11:00 AM 60.8 °F 51.8 °F 72% 30.30 in - Calm Calm - N/A   Clear
11:30 AM 62.6 °F 53.6 °F 72% 30.30 in - Variable 2.3 mph - N/A   Clear
12:00 PM 64.4 °F 53.6 °F 68% 30.30 in - Variable 2.3 mph - N/A   Clear
12:30 PM 64.4 °F 51.8 °F 64% 30.30 in - ESE 3.5 mph - N/A   Clear
1:00 PM 65 °F 51 °F 50% 30.29 in 16 mi ESE 3.5 mph - -   Clear
1:00 PM 66.2 °F 51.8 °F 60% 30.27 in - ESE 4.6 mph - N/A   Clear
1:30 PM 68.0 °F 51.8 °F 56% 30.27 in - ESE 3.5 mph - N/A   Clear
2:00 PM 68.0 °F 50.0 °F 52% 30.27 in - ESE 3.5 mph - N/A   Clear
2:30 PM 68.0 °F 51.8 °F 56% 30.24 in - SE 3.5 mph - N/A   Clear
3:00 PM 66.2 °F 50.0 °F 56% 30.24 in - NE 5.8 mph - N/A   Clear
3:30 PM 66.2 °F 53.6 °F 64% 30.24 in - NNE 3.5 mph - N/A   Clear
4:00 PM 65 °F 51 °F 50% 30.22 in 19 mi NNE 5.8 mph - -  
4:00 PM 64.4 °F 51.8 °F 64% 30.27 in - North 4.6 mph - N/A   Clear
4:30 PM 64.4 °F 50.0 °F 59% 30.27 in - Variable 2.3 mph - N/A   Clear
5:00 PM 64.4 °F 51.8 °F 64% 30.27 in - Calm Calm - N/A   Clear
5:30 PM 62.6 °F 51.8 °F 68% 30.27 in - Variable 1.2 mph - N/A   Clear
6:00 PM 62.6 °F 53.6 °F 72% 30.27 in - Variable 1.2 mph - N/A   Clear
6:30 PM 59.0 °F 53.6 °F 82% 30.27 in - Variable 1.2 mph - N/A   Clear
7:00 PM 59 °F 54 °F 77% 30.27 in 16 mi Calm Calm - -  
7:00 PM 59.0 °F 53.6 °F 82% 30.27 in - SE 1.2 mph - N/A   Clear
7:30 PM 57.2 °F 51.8 °F 82% 30.27 in - Calm Calm - N/A   Clear
10:00 PM 56 °F 48 °F 66% 30.30 in 16 mi Calm Calm - -